Location: Newark
(23.3970°S, 47.6010°W)
Time: 22:33:59
(UTC+00:00)

LightSail 2 - Visible Passes

Search period start: 22 January 2020 00:00
Search period end: 01 February 2020 00:00
Orbit: 704 x 720 km, 24.0° (Epoch: 22 January)

Date Brightness Start Highest point End Pass type
(mag) Time Alt. Az. Time Alt. Az. Time Alt. Az.
22 Jan 7.7 05:55:30 12° ENE 05:55:30 12° ENE 05:56:06 10° ENE visible
22 Jan 5.4 07:34:26 23° NW 07:37:28 55° NNE 07:42:31 10° E visible
23 Jan 5.8 06:39:32 42° NNE 06:39:32 42° NNE 06:43:58 10° E visible
24 Jan 7.7 05:44:37 13° E 05:44:37 13° E 05:45:20 10° E visible
24 Jan 5.1 07:23:33 31° WNW 07:26:02 74° N 07:31:12 10° E visible
25 Jan 5.7 06:28:38 50° ENE 06:28:38 50° ENE 06:32:42 10° E visible
25 Jan 5.2 08:07:55 10° W 08:13:07 85° S 08:18:17 10° E visible
26 Jan 7.8 05:33:43 12° E 05:33:43 12° E 05:34:11 10° E visible
26 Jan 5.1 07:12:39 39° W 07:14:37 90° N 07:19:49 10° E visible
27 Jan 6.0 06:17:46 45° E 06:17:46 45° E 06:21:20 10° E visible
27 Jan 5.2 07:56:42 11° W 08:01:44 83° S 08:06:54 10° E visible
28 Jan 5.1 07:01:50 50° W 07:03:12 83° S 07:08:24 10° E visible
29 Jan 6.6 06:07:01 34° E 06:07:01 34° E 06:09:54 10° E visible
29 Jan 5.1 07:45:57 15° W 07:50:18 89° N 07:55:29 10° E visible
30 Jan 5.0 06:51:12 71° WSW 06:51:46 85° S 06:56:58 10° E visible
31 Jan 7.2 05:56:31 23° E 05:56:31 23° E 05:58:26 10° E visible
31 Jan 5.1 07:35:29 22° W 07:38:48 74° NNW 07:43:57 10° ENE visible
